Terminal Aerodrome Forecast
Issued by NWS Twin Cities, MN

Home | Current Version | Previous Version | Graphics & Text | Print | Product List | Glossary On
Versions: 1 2 3 4 5 6 7 8 9 10 11 12 13 14 15 16 17 18 19
000
FTUS43 KMPX 020520
TAFSTC
TAF
KSTC 020520Z 0206/0306 VRB03KT P6SM SCT250
     FM021500 20007KT P6SM SCT250
     FM021900 19012KT P6SM SCT200
     FM030100 16004KT P6SM SCT150=

USA.gov is the U.S. government's official web portal to all federal, state and local government web resources and services.